Time,TemperatureF,DewpointF,PressureIn,WindDirection,WindDirectionDegrees,WindSpeedMPH,WindSpeedGustMPH,Humidity,HourlyPrecipIn,Conditions,Clouds,dailyrainin,SolarRadiationWatts/m^2,SoftwareType,DateUTC
2013-08-20 01:00:00,67.0,58.0,-100.00,South,180,3.0,-999.0,73,-99.99,,,-99.99,0.000000,,2013-08-20 05:00:00,
2013-08-20 01:43:00,67.0,58.0,-100.00,South,180,3.0,-999.0,73,-99.99,,,-99.99,0.000000,,2013-08-20 05:43:00,
2013-08-20 01:52:00,67.0,58.0,-100.00,South,180,3.0,-999.0,73,-99.99,,,-99.99,0.000000,,2013-08-20 05:52:00,
2013-08-20 02:00:00,66.0,58.0,-100.00,South,180,3.0,-999.0,76,-99.99,,,-99.99,0.000000,,2013-08-20 06:00:00,
2013-08-20 02:42:00,66.0,58.0,-100.00,South,180,3.0,-999.0,76,-99.99,,,-99.99,0.000000,,2013-08-20 06:42:00,
2013-08-20 02:52:00,66.0,58.0,-100.00,South,180,3.0,-999.0,76,-99.99,,,-99.99,0.000000,,2013-08-20 06:52:00,
2013-08-20 03:00:00,64.0,59.0,-100.00,SSW,202,3.0,-999.0,82,-99.99,,,-99.99,0.000000,,2013-08-20 07:00:00,
2013-08-20 03:42:00,64.0,59.0,-100.00,SSW,202,3.0,-999.0,82,-99.99,,,-99.99,0.000000,,2013-08-20 07:42:00,
2013-08-20 03:52:00,64.0,59.0,-100.00,SSW,202,3.0,-999.0,82,-99.99,,,-99.99,0.000000,,2013-08-20 07:52:00,
2013-08-20 04:00:00,63.0,59.0,-100.00,SSW,202,3.0,-999.0,85,-99.99,,,-99.99,0.000000,,2013-08-20 08:00:00,
2013-08-20 04:42:00,63.0,59.0,-100.00,SSW,202,3.0,-999.0,85,-99.99,,,-99.99,0.000000,,2013-08-20 08:42:00,
2013-08-20 04:52:00,63.0,59.0,-100.00,SSW,202,3.0,-999.0,85,-99.99,,,-99.99,0.000000,,2013-08-20 08:52:00,
2013-08-20 05:00:00,63.0,59.0,-100.00,SSW,202,2.0,-999.0,86,-99.99,,,-99.99,0.000000,,2013-08-20 09:00:00,
2013-08-20 05:42:00,63.0,59.0,-100.00,SSW,202,2.0,-999.0,86,-99.99,,,-99.99,0.000000,,2013-08-20 09:42:00,
2013-08-20 05:53:00,63.0,59.0,-100.00,SSW,202,2.0,-999.0,86,-99.99,,,-99.99,0.000000,,2013-08-20 09:53:00,
2013-08-20 06:00:00,63.0,59.0,-100.00,SSW,202,2.0,-999.0,87,-99.99,,,-99.99,0.000000,,2013-08-20 10:00:00,
2013-08-20 06:43:00,63.0,59.0,-100.00,SSW,202,2.0,-999.0,87,-99.99,,,-99.99,0.000000,,2013-08-20 10:43:00,
2013-08-20 06:52:00,63.0,59.0,-100.00,SSW,202,2.0,-999.0,87,-99.99,,,-99.99,0.000000,,2013-08-20 10:52:00,
2013-08-20 07:00:00,62.0,59.0,-100.00,SSW,202,2.0,-999.0,87,-99.99,,,-99.99,0.000000,,2013-08-20 11:00:00,
2013-08-20 07:42:00,62.0,59.0,-100.00,SSW,202,2.0,-999.0,87,-99.99,,,-99.99,0.000000,,2013-08-20 11:42:00,
2013-08-20 07:52:00,62.0,59.0,-100.00,SSW,202,2.0,-999.0,87,-99.99,,,-99.99,0.000000,,2013-08-20 11:52:00,
2013-08-20 08:00:00,63.0,59.0,-100.00,SSW,202,3.0,-999.0,86,-99.99,,,-99.99,41.759998,,2013-08-20 12:00:00,
2013-08-20 08:42:00,63.0,59.0,-100.00,SSW,202,3.0,-999.0,86,-99.99,,,-99.99,41.759998,,2013-08-20 12:42:00,
2013-08-20 08:52:00,63.0,59.0,-100.00,SSW,202,3.0,-999.0,86,-99.99,,,-99.99,41.759998,,2013-08-20 12:52:00,
2013-08-20 09:00:00,68.0,61.0,-100.00,SSW,202,3.0,-999.0,79,-99.99,,,-99.99,190.240005,,2013-08-20 13:00:00,
2013-08-20 09:42:00,68.0,61.0,-100.00,SSW,202,3.0,-999.0,79,-99.99,,,-99.99,190.240005,,2013-08-20 13:42:00,
2013-08-20 09:52:00,68.0,61.0,-100.00,SSW,202,3.0,-999.0,79,-99.99,,,-99.99,190.240005,,2013-08-20 13:52:00,
2013-08-20 10:00:00,72.0,64.0,-100.00,SSW,202,3.0,-999.0,75,-99.99,,,-99.99,356.119995,,2013-08-20 14:00:00,
2013-08-20 10:42:00,72.0,64.0,-100.00,SSW,202,3.0,-999.0,75,-99.99,,,-99.99,356.119995,,2013-08-20 14:42:00,
2013-08-20 10:52:00,72.0,64.0,-100.00,SSW,202,3.0,-999.0,75,-99.99,,,-99.99,356.119995,,2013-08-20 14:52:00,
2013-08-20 11:00:00,76.0,66.0,-100.00,SW,225,3.0,-999.0,70,-99.99,,,-99.99,511.559998,,2013-08-20 15:00:00,
2013-08-20 11:43:00,76.0,66.0,-100.00,SW,225,3.0,-999.0,70,-99.99,,,-99.99,511.559998,,2013-08-20 15:43:00,
2013-08-20 11:53:00,76.0,66.0,-100.00,SW,225,3.0,-999.0,70,-99.99,,,-99.99,511.559998,,2013-08-20 15:53:00,
2013-08-20 12:00:00,79.0,66.0,-100.00,WSW,247,4.0,-999.0,65,-99.99,,,-99.99,639.159973,,2013-08-20 16:00:00,
2013-08-20 12:42:00,79.0,66.0,-100.00,WSW,247,4.0,-999.0,65,-99.99,,,-99.99,639.159973,,2013-08-20 16:42:00,
2013-08-20 12:53:00,79.0,66.0,-100.00,WSW,247,4.0,-999.0,65,-99.99,,,-99.99,639.159973,,2013-08-20 16:53:00,
2013-08-20 13:00:00,78.0,66.0,-100.00,WSW,247,4.0,-999.0,65,-99.99,,,-99.99,432.679993,,2013-08-20 17:00:00,
2013-08-20 13:43:00,78.0,66.0,-100.00,WSW,247,4.0,-999.0,65,-99.99,,,-99.99,432.679993,,2013-08-20 17:43:00,
2013-08-20 13:52:00,78.0,66.0,-100.00,WSW,247,4.0,-999.0,65,-99.99,,,-99.99,432.679993,,2013-08-20 17:52:00,
2013-08-20 14:00:00,80.0,65.0,-100.00,SW,225,4.0,-999.0,60,-99.99,,,-99.99,629.880005,,2013-08-20 18:00:00,
2013-08-20 14:43:00,80.0,65.0,-100.00,SW,225,4.0,-999.0,60,-99.99,,,-99.99,629.880005,,2013-08-20 18:43:00,
2013-08-20 14:52:00,80.0,65.0,-100.00,SW,225,4.0,-999.0,60,-99.99,,,-99.99,629.880005,,2013-08-20 18:52:00,
2013-08-20 15:00:00,80.0,65.0,-100.00,SW,225,3.0,-999.0,61,-99.99,,,-99.99,404.839996,,2013-08-20 19:00:00,
2013-08-20 15:42:00,80.0,65.0,-100.00,SW,225,3.0,-999.0,61,-99.99,,,-99.99,404.839996,,2013-08-20 19:42:00,
2013-08-20 15:53:00,80.0,65.0,-100.00,SW,225,3.0,-999.0,61,-99.99,,,-99.99,404.839996,,2013-08-20 19:53:00,
2013-08-20 16:00:00,79.0,65.0,-100.00,WSW,247,3.0,-999.0,62,-99.99,,,-99.99,315.519989,,2013-08-20 20:00:00,
2013-08-20 16:42:00,79.0,65.0,-100.00,WSW,247,3.0,-999.0,62,-99.99,,,-99.99,315.519989,,2013-08-20 20:42:00,
2013-08-20 16:52:00,79.0,65.0,-100.00,WSW,247,3.0,-999.0,62,-99.99,,,-99.99,315.519989,,2013-08-20 20:52:00,
2013-08-20 18:00:00,85.0,67.0,-100.00,WNW,292,1.0,-999.0,55,-99.99,,,-99.99,382.799988,,2013-08-20 22:00:00,
2013-08-20 18:54:00,85.0,67.0,-100.00,WNW,292,1.0,-999.0,55,-99.99,,,-99.99,382.799988,,2013-08-20 22:54:00,
2013-08-20 19:00:00,85.0,66.0,-100.00,WSW,247,1.0,-999.0,53,-99.99,,,-99.99,278.399994,,2013-08-20 23:00:00,
2013-08-20 19:43:00,85.0,66.0,-100.00,WSW,247,1.0,-999.0,53,-99.99,,,-99.99,278.399994,,2013-08-20 23:43:00,
2013-08-20 19:53:00,85.0,66.0,-100.00,WSW,247,1.0,-999.0,53,-99.99,,,-99.99,278.399994,,2013-08-20 23:53:00,
2013-08-20 20:00:00,80.0,68.0,-100.00,WSW,247,0.0,-999.0,67,-99.99,,,-99.99,126.440002,,2013-08-21 00:00:00,
2013-08-20 20:42:00,80.0,68.0,-100.00,WSW,247,0.0,-999.0,67,-99.99,,,-99.99,126.440002,,2013-08-21 00:42:00,
2013-08-20 20:52:00,80.0,68.0,-100.00,WSW,247,0.0,-999.0,67,-99.99,,,-99.99,126.440002,,2013-08-21 00:52:00,
2013-08-20 21:00:00,74.0,65.0,-100.00,South,180,1.0,-999.0,72,-99.99,,,-99.99,13.920000,,2013-08-21 01:00:00,
2013-08-20 21:42:00,74.0,65.0,-100.00,South,180,1.0,-999.0,72,-99.99,,,-99.99,13.920000,,2013-08-21 01:42:00,
2013-08-20 21:52:00,74.0,65.0,-100.00,South,180,1.0,-999.0,72,-99.99,,,-99.99,13.920000,,2013-08-21 01:52:00,
2013-08-20 22:00:00,72.0,63.0,-100.00,South,180,2.0,-999.0,72,-99.99,,,-99.99,0.000000,,2013-08-21 02:00:00,
2013-08-20 22:42:00,72.0,63.0,-100.00,South,180,2.0,-999.0,72,-99.99,,,-99.99,0.000000,,2013-08-21 02:42:00,
2013-08-20 22:52:00,72.0,63.0,-100.00,South,180,2.0,-999.0,72,-99.99,,,-99.99,0.000000,,2013-08-21 02:52:00,
2013-08-20 23:00:00,71.0,62.0,-100.00,SSE,157,2.0,-999.0,75,-99.99,,,-99.99,0.000000,,2013-08-21 03:00:00,
2013-08-20 23:44:00,71.0,62.0,-100.00,SSE,157,2.0,-999.0,75,-99.99,,,-99.99,0.000000,,2013-08-21 03:44:00,
2013-08-20 23:55:00,71.0,62.0,-100.00,SSE,157,2.0,-999.0,75,-99.99,,,-99.99,0.000000,,2013-08-21 03:55:00,